Regional Weather Roundup
Issued by NWS

Home | Current Version | Previous Version | Text Only | Print | Product List | Glossary Off
Versions: 1 2 3 4 5 6 7 8 9 10 11 12 13 14 15 16 17 18 19 20 21 22 23 24 25 26 27 28

000
ASUS45 KSLC 250210
RWRUT

UTAH REGIONAL WEATHER ROUNDUP
NATIONAL WEATHER SERVICE SALT LAKE CITY UT
800 PM MDT MON APR 24 2017

UTZ001>011-023>025-250300-

NORTHERN UTAH

CITY           SKY/WX    TMP DP  RH WIND       PRES   REMARKS
BRIGHAM CITY   MOCLDY    46  40  77 SE5       29.72S
HILL AFB       MOCLDY    44  39  85 E6        29.72S
LOGAN          MOCLDY    45  38  76 SE3       29.71F
OGDEN          MOCLDY    45  39  79 E6        29.71F
SALT LAKE CITY CLOUDY    48  42  80 E5        29.72F
TOOELE VALLEY  MOCLDY    48  43  81 E3        29.73S
WENDOVER       MOCLDY    53  27  36 W22       29.72R
HEBER CITY     DRIZZLE   45  36  70 N6        29.72R
WEST JORDAN    CLOUDY    48  48 100 E5        29.74S

$$

UTZ011>015-024>027-250300-

CENTRAL/NORTHEAST UTAH

CITY           SKY/WX    TMP DP  RH WIND       PRES   REMARKS
PROVO AIRPORT  MOCLDY    46  39  76 NW9       29.73R
MOAB/CANYONLAN CLOUDY    64  31  28 W26G36    29.54R
DELTA          CLOUDY    50  32  50 N9        29.73R
PRICE          CLOUDY    46  32  58 W7        29.70S
ROOSEVELT      CLEAR     50  30  46 W22G29    29.64F
VERNAL         CLOUDY    52  31  44 SW20      29.59R

$$

UTZ013>016-019>022-027-250300-

SOUTHERN UTAH

CITY           SKY/WX    TMP DP  RH WIND       PRES   REMARKS
BRYCE CANYON   CLOUDY    51  21  30 W13       29.78R
CEDAR CITY     MOCLDY    58  20  22 W16G23    29.71R
MILFORD        MOCLDY    55  33  43 NE17      29.69R
ST GEORGE      CLOUDY    75  26  16 SW13      29.59F
HANKSVILLE     MOCLDY    63  32  31 NW21G26   29.59R
BLANDING       CLOUDY    60  22  23 SW9       29.71R

$$

REGIONAL REPORTS     COLORADO/ARIZONA

CITY           SKY/WX    TMP DP  RH WIND       PRES   REMARKS
CRAIG, CO      RAIN      39  35  86 NW8       29.67R FOG     WCI  33
GRAND JUNCTION CLOUDY    64  27  24 W26G36    29.55R
RIFLE, CO      CLOUDY    60  27  28 S9G18     29.56F
MONTROSE, CO   CLOUDY    59  26  28 SE8       29.63F
CORTEZ, CO     CLOUDY    54  32  43 N5        29.66F
COLORADO CITY    N/A     64  25  22 SW10      29.73F
PAGE, AZ       CLOUDY    71  21  15 W16G26    29.61R
GRAND CANYON   CLOUDY    57  25  29 SW13G25   29.81R
KINGMAN, AZ    CLOUDY    71  31  22 SW15      29.69F
FLAGSTAFF, AZ  MOCLDY    55  26  32 SW22G36   29.82S

$$

REGIONAL REPORTS    NEVADA/IDAHO/WYOMING

CITY           SKY/WX    TMP DP  RH WIND       PRES   REMARKS
LAS VEGAS, NV  MOCLDY    80  27  14 SW12      29.57S
ELY, NY        MOCLDY    45  27  49 NW8       29.80F
ELKO, NV       MOCLDY    45  36  70 SW10      29.77F
POCATELLO, ID  MOCLDY    46  37  71 SW24G31   29.67R
BURLEY, ID     LGT RAIN  43  36  76 W21G30    29.70R
FORT BRIDGER,  LGT SNOW  35  35  99 W18G28    29.72R VSB 1   WCI  24
EVANSTON, WY   SNOW      33  33 100 W17       29.72R VSB 1/2 WCI  22
ROCK SPRINGS,  LGT RAIN  37  33  85 W12       29.64S WCI  29
KEMMERER, WY   LGT SNOW  32  32 100 W21       29.67S VSB 3/4 WCI  20

$$




USA.gov is the U.S. government's official web portal to all federal, state and local government web resources and services.